BEIDOU-3 M24 (C46)

Last updated on Dec. 12, 2019, 4:25 a.m. UTC

1 44543U 19061B   19345.23587060  .00000004  00000-0  10000-3 0  9998
2 44543  54.9746 263.3904 0006592 306.1538 163.3472  1.86231978  1475
UTC
Height (km)
Latitude
Longitude
Inclination
Orbital Period
UTC large
Height (km)
Speed (km/s)
/
Latitude / Longitude
Inclination (degrees)
Orbital Period (minutes)
Azimuth
Elevation
Range (km)
Doppler Factor
iOS Compass Heading
iOS Angle

Next 30 passes for location: Hong Kong

Rise time Rise Azimuth (degrees) Set time Set Azimuth (degrees) Duration Max altitude (degrees)

No matching passes for this satellites